Home > Time Zones > World Clock > Weather > Egypt > Cairo > Past weeks

Flag for Egypt Weather past 2 weeks in Cairo, Egypt

Now
59 °F

Clear.


Feels Like: 58 °F
Forecast: 54 / 74 °F
Wind: 6 mph from Southeast

Location: Cairo Airport

Current Time: Mar 3, 2015 at 1:22:00 AM

Latest Report: Mar 3, 2015 at 1:00 AM


Visibility: 10 mi

Pressure: 30.15 "Hg

Humidity: 51%

Dew point: 41 °F

Location of CairoLocation

Historic Weather in Cairo — Graph

°F

Cairo temperature yesterday

Maximum temperature yesterday: 72 °F (at 3:00 PM)
Minimum temperature yesterday: 52 °F (at 2:30 AM)
Average temperature yesterday: 60 °F

Past Weeks' High & Low Weather Summary

 TemperatureHumidityPressure
High84 °F (Feb 27, 3:30 PM)100% (Feb 16, 2:30 AM)30.18 "Hg (Feb 16, 2:30 AM)
Low43 °F (Feb 20, 2:30 AM)11% (Feb 27, 5:00 PM)29.77 "Hg (Feb 24, 3:30 AM)
Average59 °F59%30.04 "Hg
* Reported Midnight between Feb 15 and Feb 16 — Mar 3 12:30 AM, Cairo, Weather by CustomWeather, © 2015

Note: Actual official high and low records may vary slightly from our data, if they occured in-between our weather recording intervals... More about our weather records

Advertising

Cairo weather history for previous 24 hours

 ConditionsComfort  
Time TempWeatherWind HumidityBarometerVisibility
12:30 AM
Tue, Mar 3
59 °FClear.5 mph51%30.15 "Hg10 mi
12:00 AM59 °FClear.3 mph51%30.15 "Hg10 mi
11:30 PM
Mon, Mar 2
61 °FClear.5 mph48%30.15 "Hg10 mi
11:00 PM61 °FClear.7 mph48%30.15 "Hg10 mi
10:30 PM61 °FClear.3 mph48%30.12 "Hg10 mi
10:00 PM61 °FClear.3 mph48%30.15 "Hg10 mi
9:30 PM63 °FClear.5 mph45%30.12 "Hg10 mi
9:00 PM63 °FClear.5 mph45%30.12 "Hg10 mi
8:30 PM64 °FClear.6 mph43%30.12 "Hg10 mi
8:00 PM64 °FClear.5 mph43%30.15 "Hg10 mi
7:00 PM66 °FClear.6 mph37%30.12 "Hg10 mi
6:30 PM66 °FClear.8 mph37%30.12 "Hg10 mi
6:00 PM66 °FClear.7 mph37%30.09 "Hg10 mi
5:30 PM68 °FSunny.9 mph33%30.09 "Hg10 mi
5:00 PM68 °FSunny.10 mph35%30.09 "Hg10 mi
4:30 PM68 °FSunny.8 mph33%30.09 "Hg10 mi
4:00 PM68 °FSunny.8 mph33%30.09 "Hg10 mi
3:30 PM70 °FSunny.10 mph31%30.09 "Hg10 mi
3:00 PM72 °FSunny.6 mph29%30.09 "Hg10 mi
2:30 PM70 °FSunny.7 mph29%30.09 "Hg10 mi
1:30 PM68 °FSunny.8 mph28%30.09 "Hg10 mi
1:00 PM68 °FSunny.8 mph26%30.09 "Hg10 mi
11:30 AM66 °FSunny.6 mph35%30.12 "Hg10 mi
11:00 AM64 °FSunny.7 mph37%30.15 "Hg10 mi
10:30 AM64 °FSunny.6 mph43%30.15 "Hg10 mi
10:00 AM64 °FSunny.5 mph49%30.15 "Hg10 mi
9:30 AM61 °FSunny.7 mph55%30.15 "Hg10 mi
9:00 AM59 °FSunny.7 mph63%30.15 "Hg10 mi
8:30 AM57 °FSunny.5 mph77%30.15 "Hg10 mi
8:00 AM57 °FSunny.5 mph77%30.12 "Hg10 mi
7:30 AM55 °FClear.5 mph82%30.12 "Hg4 mi
7:00 AM54 °FClear.3 mph88%30.12 "Hg4 mi
6:30 AM52 °FClear.5 mph94%30.09 "Hg4 mi
6:00 AM52 °FClear.5 mph88%30.09 "Hg4 mi
5:30 AM52 °FClear.6 mph94%30.09 "Hg4 mi
5:00 AM52 °FClear.7 mph88%30.09 "Hg4 mi
4:30 AM52 °FClear.7 mph88%30.09 "Hg10 mi
4:00 AM52 °FClear.5 mph88%30.09 "Hg10 mi
3:30 AM52 °FClear.3 mph88%30.09 "Hg10 mi
3:00 AM52 °FClear.3 mph82%30.09 "Hg10 mi
2:30 AM52 °FClear.3 mph82%30.09 "Hg10 mi
2:00 AM54 °FClear.3 mph77%30.09 "Hg10 mi
1:30 AM54 °FClear.3 mph77%30.12 "Hg10 mi
1:00 AM54 °FClear.3 mph77%30.12 "Hg10 mi
Weather by CustomWeather, © 2015

See weather overviewHow to use our weather pages